ヴィルト第3彗星

86P/Wild 3 (2022)

English version
Home page
Updated on December 18, 2022

---------------------------------------------------------------------

・ プロフィール

・ 軌道要素

Epoch 2022 Jan. 21.0 TT = JDT 2459600.5
T 2022 Feb. 7.64168 TT                                  Rudenko
q   2.2607410            (2000.0)            P               Q
n   0.14423100     Peri.  179.42001     -0.31237898     +0.91529396
a   3.6010597      Node    72.35624     -0.87263989     -0.17070866
e   0.3722012      Incl.   15.47559     -0.37539179     -0.36482260
P   6.83
From 54 observations 2001 Apr. 6-2022 May 9, mean residual 0".9.
     Nongravitational parameters A1 = +0.72, A2 = +0.0624.

・ 光度変化

        m1 = 13.0 + 5 logΔ + 15.0 log r

---------------------------------------------------------------------

軌道要素はM.P.E.C. 2022-K19に掲載されたものです。
光度グラフはComet for Windowsで作成したものです。

---------------------------------------------------------------------

Copyright(C) Seiichi Yoshida (comet@aerith.net). All rights reserved.